Tracking 31027 objects as of 19-Jul-2025
HD Live streaming from Space Station
objects crossing your sky now

STARLINK-31071

Track STARLINK-31071 now!
10-day predictions
STARLINK-31071 is classified as:


NORAD ID: 58602
Int'l Code: 2023-200P
Perigee: 489.0 km
Apogee: 491.4 km
Inclination: 43.0 °
Period: 94.3 minutes
Semi major axis: 6861 km
RCS: Unknown
Launch date: December 19, 2023
Source: United States (US)
Launch site: AIR FORCE EASTERN TEST RANGE (AFETR)
Your satellite tracking list
Your tracking list is empty




NASA's NSSDC Master Catalog

Two Line Element Set (TLE):
1 58602U 23200P   25199.82370690 -.00001291  00000-0 -37406-4 0  9998
2 58602  43.0009 249.4195 0001805 268.6558  91.4087 15.27577223 89633
Source of the keplerian elements: AFSPC